RYR6RI EGSS-LEAM

Flight info

Callsign RYR6RI
Flight time 2h 37m
Altitude 37000
Route NUGBO M183 SILVA Q41 COWLY UT71 VAPID UN859 SOPIL DCT BALAN DCT LMG DCT PIMQO DCT AGN DCT ANETO N860 DOSEK
Aircraft B738/M-SDE3FGILRWY/SB1

Departure

Time 2026-05-04 16:20
Airport London Stansted Airport (EGSS)

Arrival

Time 2026-05-04 18:58
Airport Almería Airport (LEAM)
Time Latitude Longitude Altitude Speed Heading
2026-05-04 15:38 51.88950 0.25505 361 ft 0 kts 223°
2026-05-04 16:07 51.88977 0.25549 355 ft 4 kts 251°
2026-05-04 16:08 51.88975 0.25585 358 ft 4 kts 308°
2026-05-04 16:08 51.88964 0.25607 351 ft 0 kts 313°
2026-05-04 16:13 51.88964 0.25606 351 ft 1 kts 313°
2026-05-04 16:13 51.89017 0.25513 351 ft 9 kts 313°
2026-05-04 16:14 51.89130 0.25316 356 ft 13 kts 313°
2026-05-04 16:14 51.89057 0.25101 355 ft 12 kts 223°
2026-05-04 16:15 51.88836 0.24768 355 ft 17 kts 223°
2026-05-04 16:16 51.88654 0.24497 350 ft 20 kts 222°
2026-05-04 16:16 51.88350 0.24037 347 ft 19 kts 223°
2026-05-04 16:17 51.88135 0.23716 337 ft 23 kts 223°
2026-05-04 16:18 51.87788 0.23197 339 ft 22 kts 222°
2026-05-04 16:18 51.87731 0.23083 337 ft 9 kts 258°
2026-05-04 16:19 51.87858 0.22812 335 ft 15 kts 313°
2026-05-04 16:19 51.87951 0.22684 333 ft 7 kts 353°
2026-05-04 16:20 51.88801 0.23931 337 ft 138 kts 43°
2026-05-04 16:20 51.90358 0.26420 1449 ft 164 kts 45°
2026-05-04 16:21 51.92881 0.30626 3329 ft 187 kts 30°
2026-05-04 16:22 51.95473 0.31853 4411 ft 204 kts 356°
2026-05-04 16:22 51.98527 0.27486 6035 ft 206 kts 282°
2026-05-04 16:23 51.98841 0.19682 5822 ft 276 kts 271°
2026-05-04 16:24 51.99099 0.08025 6859 ft 265 kts 271°
2026-05-04 16:25 51.99216 0.02042 7651 ft 266 kts 266°
2026-05-04 16:26 51.98112 -0.09541 10633 ft 270 kts 259°
2026-05-04 16:26 51.96927 -0.18809 12615 ft 278 kts 257°
2026-05-04 16:27 51.96065 -0.24885 14050 ft 285 kts 256°
2026-05-04 16:28 51.94694 -0.34577 15955 ft 297 kts 256°
2026-05-04 16:28 51.93302 -0.44551 17897 ft 311 kts 255°
2026-05-04 16:29 51.91151 -0.58330 20197 ft 322 kts 242°
2026-05-04 16:30 51.86148 -0.65868 21538 ft 340 kts 204°
2026-05-04 16:31 51.81719 -0.67908 23352 ft 327 kts 189°
2026-05-04 16:31 51.74888 -0.68026 24380 ft 350 kts 177°
2026-05-04 16:32 51.67805 -0.66280 25457 ft 361 kts 171°
2026-05-04 16:33 51.62738 -0.65474 25596 ft 377 kts 196°
2026-05-04 16:33 51.58540 -0.70450 25781 ft 394 kts 231°
2026-05-04 16:34 51.54903 -0.77255 26172 ft 405 kts 219°
2026-05-04 16:34 51.52531 -0.79551 26571 ft 405 kts 201°
2026-05-04 16:35 51.44191 -0.79446 27579 ft 417 kts 163°
2026-05-04 16:35 51.36019 -0.74387 28504 ft 423 kts 161°
2026-05-04 16:36 51.33276 -0.72668 28833 ft 424 kts 161°
2026-05-04 16:36 51.27827 -0.69310 29625 ft 422 kts 162°
2026-05-04 16:37 51.22300 -0.65962 30076 ft 427 kts 162°
2026-05-04 16:37 51.19517 -0.64286 30358 ft 427 kts 162°
2026-05-04 16:37 51.13978 -0.60956 31018 ft 424 kts 162°
2026-05-04 16:38 51.08454 -0.57645 31521 ft 425 kts 162°
2026-05-04 16:39 51.01511 -0.53496 32230 ft 423 kts 161°
2026-05-04 16:39 50.95103 -0.49677 32816 ft 423 kts 161°
2026-05-04 16:40 50.89596 -0.46404 33342 ft 422 kts 161°
2026-05-04 16:40 50.85022 -0.43692 33785 ft 421 kts 161°
2026-05-04 16:41 50.79545 -0.40452 34227 ft 421 kts 161°
2026-05-04 16:41 50.71283 -0.35581 34687 ft 423 kts 161°
2026-05-04 16:42 50.62992 -0.30710 35137 ft 425 kts 161°
2026-05-04 16:43 50.57486 -0.27486 35433 ft 426 kts 161°
2026-05-04 16:43 50.51922 -0.24235 35720 ft 427 kts 161°
2026-05-04 16:43 50.49136 -0.22611 35842 ft 427 kts 161°
2026-05-04 16:44 50.37945 -0.16106 36325 ft 431 kts 161°
2026-05-04 16:45 50.32329 -0.12854 36603 ft 431 kts 161°
2026-05-04 16:46 50.23915 -0.07996 36943 ft 432 kts 161°
2026-05-04 16:46 50.18250 -0.04736 36972 ft 435 kts 161°
2026-05-04 16:47 50.06905 0.01424 36980 ft 431 kts 167°
2026-05-04 16:48 49.95282 0.05825 36976 ft 429 kts 167°
2026-05-04 16:49 49.83740 0.10321 36982 ft 429 kts 167°
2026-05-04 16:50 49.72163 0.14843 36991 ft 429 kts 167°
2026-05-04 16:51 49.63486 0.18264 36991 ft 429 kts 167°
2026-05-04 16:52 49.51967 0.22919 36990 ft 430 kts 167°
2026-05-04 16:53 49.43286 0.26399 36965 ft 430 kts 167°
2026-05-04 16:54 49.31746 0.31004 36966 ft 430 kts 167°
2026-05-04 16:55 49.14437 0.38275 36948 ft 430 kts 166°
2026-05-04 16:56 49.00042 0.44306 36927 ft 430 kts 166°
2026-05-04 16:57 48.91391 0.47910 36947 ft 429 kts 166°
2026-05-04 16:58 48.79912 0.52674 36940 ft 429 kts 166°
2026-05-04 17:00 48.62586 0.59484 36949 ft 428 kts 167°
2026-05-04 17:01 48.48205 0.65135 36939 ft 428 kts 167°
2026-05-04 17:02 48.36730 0.69822 36939 ft 427 kts 167°
2026-05-04 17:03 48.28170 0.73287 36934 ft 427 kts 167°
2026-05-04 17:03 48.19558 0.76721 36921 ft 426 kts 167°
2026-05-04 17:04 48.08129 0.81198 36936 ft 423 kts 167°
2026-05-04 17:05 47.96804 0.85628 36913 ft 421 kts 168°
2026-05-04 17:06 47.88307 0.88940 36923 ft 420 kts 168°
2026-05-04 17:07 47.80774 0.91864 36927 ft 421 kts 168°
2026-05-04 17:07 47.74191 0.94412 36921 ft 421 kts 168°
2026-05-04 17:08 47.65688 0.97694 36927 ft 421 kts 168°
2026-05-04 17:09 47.60014 0.99879 36921 ft 421 kts 168°
2026-05-04 17:09 47.54379 1.02044 36925 ft 421 kts 168°
2026-05-04 17:10 47.40119 1.06508 36917 ft 415 kts 183°
2026-05-04 17:11 47.34343 1.06299 36914 ft 415 kts 183°
2026-05-04 17:12 47.25730 1.06041 36922 ft 415 kts 182°
2026-05-04 17:13 47.11315 1.05703 36918 ft 414 kts 182°
2026-05-04 17:14 46.99840 1.05412 36914 ft 413 kts 183°
2026-05-04 17:15 46.91223 1.05027 36916 ft 413 kts 184°
2026-05-04 17:16 46.79744 1.04524 36911 ft 413 kts 183°
2026-05-04 17:17 46.68306 1.04039 36911 ft 413 kts 183°
2026-05-04 17:18 46.56823 1.03553 36909 ft 413 kts 183°
2026-05-04 17:19 46.45388 1.03216 36911 ft 413 kts 182°
2026-05-04 17:20 46.33930 1.03132 36913 ft 413 kts 182°
2026-05-04 17:20 46.25305 1.03041 36912 ft 413 kts 182°
2026-05-04 17:21 46.13815 1.02913 36911 ft 412 kts 182°
2026-05-04 17:22 46.08108 1.02850 36909 ft 413 kts 182°
2026-05-04 17:23 45.96624 1.02723 36902 ft 413 kts 182°
2026-05-04 17:24 45.88042 1.02629 36922 ft 412 kts 182°
2026-05-04 17:25 45.76664 1.03729 36905 ft 414 kts 173°
2026-05-04 17:26 45.65371 1.06726 36908 ft 413 kts 173°
2026-05-04 17:27 45.51248 1.10349 36917 ft 413 kts 173°
2026-05-04 17:28 45.39908 1.13238 36927 ft 415 kts 173°
2026-05-04 17:29 45.22838 1.17569 36917 ft 415 kts 173°
2026-05-04 17:30 45.14355 1.18862 36932 ft 407 kts 187°
2026-05-04 17:31 45.08794 1.17559 36931 ft 404 kts 192°
2026-05-04 17:32 44.94939 1.14129 36950 ft 405 kts 192°
2026-05-04 17:33 44.83892 1.11137 36926 ft 406 kts 192°
2026-05-04 17:34 44.72764 1.08283 36930 ft 407 kts 192°
2026-05-04 17:35 44.58881 1.04771 36926 ft 406 kts 192°
2026-05-04 17:36 44.53318 1.03368 36933 ft 406 kts 192°
2026-05-04 17:36 44.47749 1.01966 36933 ft 406 kts 192°
2026-05-04 17:37 44.42230 1.00579 36933 ft 405 kts 192°
2026-05-04 17:37 44.36680 0.99187 36931 ft 405 kts 192°
2026-05-04 17:38 44.31131 0.97797 36931 ft 405 kts 192°
2026-05-04 17:38 44.25578 0.96410 36932 ft 406 kts 192°
2026-05-04 17:39 44.17239 0.94331 36932 ft 406 kts 192°
2026-05-04 17:39 44.11719 0.92959 36940 ft 406 kts 192°
2026-05-04 17:40 44.06156 0.91578 36943 ft 406 kts 192°
2026-05-04 17:40 44.00588 0.90198 36934 ft 406 kts 192°
2026-05-04 17:41 43.95019 0.88821 36945 ft 407 kts 192°
2026-05-04 17:41 43.89489 0.87456 36956 ft 407 kts 192°
2026-05-04 17:42 43.83979 0.86030 36953 ft 408 kts 193°
2026-05-04 17:42 43.78402 0.84522 36946 ft 408 kts 193°
2026-05-04 17:43 43.72849 0.83024 36964 ft 409 kts 193°
2026-05-04 17:43 43.67268 0.81530 36964 ft 409 kts 193°
2026-05-04 17:44 43.61675 0.80040 36956 ft 409 kts 193°
2026-05-04 17:44 43.56114 0.78562 36983 ft 410 kts 193°
2026-05-04 17:45 43.50488 0.77070 36985 ft 413 kts 193°
2026-05-04 17:45 43.44841 0.75575 36983 ft 414 kts 193°
2026-05-04 17:46 43.39191 0.74082 36985 ft 413 kts 193°
2026-05-04 17:46 43.33553 0.72596 36992 ft 413 kts 193°
2026-05-04 17:47 43.27949 0.71121 37000 ft 413 kts 193°
2026-05-04 17:47 43.22308 0.69639 36986 ft 412 kts 194°
2026-05-04 17:48 43.16668 0.68160 37006 ft 413 kts 194°
2026-05-04 17:48 43.11007 0.66678 37007 ft 415 kts 194°
2026-05-04 17:49 43.05366 0.65204 36993 ft 416 kts 194°
2026-05-04 17:49 42.99697 0.63726 36992 ft 415 kts 194°
2026-05-04 17:50 42.94027 0.62251 36979 ft 414 kts 194°
2026-05-04 17:50 42.88384 0.60784 36996 ft 412 kts 194°
2026-05-04 17:51 42.82792 0.59334 36985 ft 411 kts 194°
2026-05-04 17:51 42.77181 0.57881 36987 ft 410 kts 194°
2026-05-04 17:52 42.71573 0.56432 36983 ft 410 kts 194°
2026-05-04 17:52 42.65976 0.54989 36977 ft 409 kts 194°
2026-05-04 17:53 42.60411 0.53559 36965 ft 411 kts 194°
2026-05-04 17:53 42.54789 0.52115 36978 ft 411 kts 194°
2026-05-04 17:54 42.49157 0.50672 36956 ft 412 kts 194°
2026-05-04 17:54 42.43523 0.49230 36959 ft 412 kts 194°
2026-05-04 17:55 42.37925 0.47801 36944 ft 412 kts 195°
2026-05-04 17:55 42.32286 0.46363 36933 ft 413 kts 194°
2026-05-04 17:56 42.26658 0.44930 36932 ft 412 kts 194°
2026-05-04 17:56 42.21037 0.43501 36943 ft 411 kts 194°
2026-05-04 17:57 42.15432 0.42074 36934 ft 408 kts 195°
2026-05-04 17:57 42.09888 0.40673 36941 ft 407 kts 195°
2026-05-04 17:58 42.04319 0.39266 36936 ft 407 kts 195°
2026-05-04 17:58 41.98758 0.37861 36951 ft 407 kts 195°
2026-05-04 17:59 41.93191 0.36459 36938 ft 407 kts 195°
2026-05-04 18:00 41.84870 0.34369 36943 ft 409 kts 195°
2026-05-04 18:00 41.79268 0.32963 36942 ft 410 kts 195°
2026-05-04 18:01 41.73647 0.31557 36941 ft 411 kts 195°
2026-05-04 18:01 41.68008 0.30149 36943 ft 413 kts 195°
2026-05-04 18:02 41.59562 0.28044 36940 ft 415 kts 195°
2026-05-04 18:02 41.53881 0.26631 36921 ft 415 kts 195°
2026-05-04 18:03 41.48195 0.25219 36930 ft 416 kts 195°
2026-05-04 18:03 41.42496 0.23806 36935 ft 417 kts 195°
2026-05-04 18:04 41.36824 0.22403 36937 ft 418 kts 195°
2026-05-04 18:05 41.28260 0.20289 36931 ft 417 kts 195°
2026-05-04 18:05 41.22569 0.18888 36925 ft 415 kts 195°
2026-05-04 18:06 41.14212 0.16835 36938 ft 412 kts 195°
2026-05-04 18:06 41.08726 0.14950 36945 ft 405 kts 202°
2026-05-04 18:07 41.03369 0.12700 36953 ft 403 kts 202°
2026-05-04 18:07 40.98017 0.10498 36942 ft 402 kts 202°
2026-05-04 18:08 40.92665 0.08340 36936 ft 402 kts 202°
2026-05-04 18:08 40.87360 0.06210 36945 ft 401 kts 202°
2026-05-04 18:09 40.76647 0.01920 36948 ft 403 kts 202°
2026-05-04 18:10 40.71272 -0.00228 36948 ft 404 kts 202°
2026-05-04 18:10 40.65914 -0.02366 36961 ft 405 kts 202°
2026-05-04 18:11 40.60499 -0.04523 36952 ft 407 kts 201°
2026-05-04 18:11 40.55063 -0.06684 36951 ft 408 kts 201°
2026-05-04 18:12 40.49620 -0.08843 36958 ft 410 kts 201°
2026-05-04 18:12 40.44159 -0.11007 36952 ft 410 kts 202°
2026-05-04 18:13 40.38731 -0.13154 36947 ft 410 kts 202°
2026-05-04 18:14 40.30572 -0.16376 36962 ft 407 kts 202°
2026-05-04 18:14 40.25166 -0.18508 36929 ft 404 kts 202°
2026-05-04 18:15 40.14484 -0.22701 36942 ft 401 kts 202°
2026-05-04 18:16 40.09144 -0.24795 36933 ft 400 kts 202°
2026-05-04 18:16 40.03805 -0.26887 36907 ft 401 kts 202°
2026-05-04 18:17 39.95828 -0.30001 36911 ft 401 kts 202°
2026-05-04 18:18 39.87814 -0.33119 36886 ft 400 kts 202°
2026-05-04 18:18 39.82474 -0.35199 36917 ft 402 kts 202°
2026-05-04 18:19 39.74436 -0.38316 36905 ft 405 kts 203°
2026-05-04 18:19 39.69016 -0.40415 36917 ft 407 kts 202°
2026-05-04 18:20 39.63565 -0.42523 36913 ft 410 kts 202°
2026-05-04 18:20 39.58098 -0.44632 36912 ft 410 kts 202°
2026-05-04 18:21 39.52681 -0.46719 36902 ft 408 kts 203°
2026-05-04 18:21 39.47346 -0.49070 36893 ft 399 kts 213°
2026-05-04 18:22 39.42511 -0.52474 36907 ft 395 kts 214°
2026-05-04 18:22 39.37693 -0.55866 36907 ft 394 kts 214°
2026-05-04 18:23 39.32884 -0.59221 36875 ft 392 kts 214°
2026-05-04 18:23 39.28122 -0.62528 36892 ft 391 kts 214°
2026-05-04 18:24 39.23337 -0.65845 36891 ft 390 kts 214°
2026-05-04 18:24 39.18552 -0.69158 36897 ft 391 kts 214°
2026-05-04 18:25 39.13739 -0.72487 36898 ft 395 kts 214°
2026-05-04 18:25 39.08912 -0.75819 36893 ft 398 kts 214°
2026-05-04 18:26 39.04015 -0.79191 36916 ft 400 kts 214°
2026-05-04 18:26 38.99087 -0.82578 36920 ft 402 kts 214°
2026-05-04 18:27 38.94142 -0.85972 36921 ft 403 kts 214°
2026-05-04 18:27 38.89196 -0.89362 36911 ft 403 kts 214°
2026-05-04 18:28 38.84328 -0.92692 36913 ft 394 kts 214°
2026-05-04 18:28 38.79526 -0.95976 36926 ft 391 kts 214°
2026-05-04 18:29 38.74734 -0.99249 36695 ft 391 kts 214°
2026-05-04 18:29 38.72344 -1.00876 36410 ft 385 kts 214°
2026-05-04 18:29 38.69992 -1.02472 36047 ft 380 kts 214°
2026-05-04 18:30 38.65397 -1.05593 35308 ft 373 kts 214°
2026-05-04 18:30 38.63117 -1.07141 34912 ft 369 kts 214°
2026-05-04 18:30 38.60859 -1.08674 34545 ft 366 kts 214°
2026-05-04 18:31 38.58622 -1.10193 34184 ft 362 kts 214°
2026-05-04 18:31 38.56411 -1.11691 33918 ft 356 kts 214°
2026-05-04 18:31 38.54243 -1.13158 33648 ft 350 kts 214°
2026-05-04 18:31 38.52104 -1.14606 33249 ft 347 kts 214°
2026-05-04 18:32 38.49967 -1.16056 32644 ft 350 kts 214°
2026-05-04 18:32 38.47819 -1.17513 32151 ft 350 kts 214°
2026-05-04 18:32 38.45694 -1.18951 31716 ft 349 kts 214°
2026-05-04 18:32 38.43561 -1.20391 31351 ft 346 kts 214°
2026-05-04 18:33 38.41437 -1.21824 30970 ft 344 kts 214°
2026-05-04 18:33 38.39330 -1.23244 30611 ft 342 kts 214°
2026-05-04 18:33 38.37239 -1.24653 30244 ft 340 kts 214°
2026-05-04 18:33 38.35156 -1.26057 29874 ft 338 kts 214°
2026-05-04 18:34 38.33044 -1.27483 29489 ft 352 kts 214°
2026-05-04 18:34 38.30823 -1.28990 29064 ft 371 kts 213°
2026-05-04 18:34 38.28524 -1.30544 28623 ft 381 kts 213°
2026-05-04 18:34 38.26183 -1.32113 28164 ft 380 kts 213°
2026-05-04 18:35 38.23852 -1.33670 27721 ft 377 kts 213°
2026-05-04 18:35 38.21545 -1.35211 27308 ft 373 kts 213°
2026-05-04 18:35 38.19259 -1.36739 26884 ft 371 kts 213°
2026-05-04 18:35 38.16986 -1.38259 26457 ft 367 kts 213°
2026-05-04 18:36 38.14735 -1.39765 26063 ft 364 kts 213°
2026-05-04 18:36 38.12504 -1.41262 25687 ft 361 kts 213°
2026-05-04 18:36 38.10284 -1.42745 25271 ft 359 kts 213°
2026-05-04 18:36 38.08108 -1.44197 24819 ft 358 kts 212°
2026-05-04 18:37 38.05911 -1.45663 24349 ft 356 kts 212°
2026-05-04 18:37 38.03719 -1.47125 23861 ft 356 kts 212°
2026-05-04 18:37 38.01491 -1.48615 23281 ft 373 kts 212°
2026-05-04 18:37 37.99113 -1.50209 22625 ft 398 kts 212°
2026-05-04 18:38 37.96649 -1.51848 21945 ft 401 kts 212°
2026-05-04 18:38 37.94187 -1.53480 21298 ft 398 kts 212°
2026-05-04 18:38 37.91744 -1.55099 20661 ft 396 kts 212°
2026-05-04 18:38 37.89306 -1.56711 20033 ft 395 kts 212°
2026-05-04 18:39 37.86904 -1.58278 19504 ft 393 kts 212°
2026-05-04 18:39 37.84457 -1.59869 19097 ft 398 kts 212°
2026-05-04 18:39 37.81982 -1.61476 18632 ft 401 kts 212°
2026-05-04 18:39 37.79504 -1.63083 18101 ft 399 kts 211°
2026-05-04 18:40 37.77049 -1.64673 17478 ft 395 kts 211°
2026-05-04 18:40 37.74605 -1.66257 16827 ft 394 kts 211°
2026-05-04 18:40 37.72171 -1.67835 16188 ft 392 kts 211°
2026-05-04 18:40 37.69748 -1.69405 15552 ft 390 kts 211°
2026-05-04 18:41 37.67337 -1.70966 14931 ft 388 kts 211°
2026-05-04 18:41 37.64972 -1.72496 14345 ft 386 kts 211°
2026-05-04 18:41 37.62597 -1.74032 13759 ft 383 kts 211°
2026-05-04 18:41 37.60230 -1.75563 13113 ft 381 kts 211°
2026-05-04 18:42 37.57875 -1.77084 12455 ft 379 kts 210°
2026-05-04 18:42 37.55526 -1.78601 11778 ft 379 kts 210°
2026-05-04 18:42 37.53181 -1.80115 11109 ft 378 kts 210°
2026-05-04 18:42 37.50840 -1.81624 10447 ft 379 kts 209°
2026-05-04 18:43 37.48501 -1.83131 9804 ft 377 kts 208°
2026-05-04 18:43 37.46175 -1.84627 9126 ft 375 kts 209°
2026-05-04 18:43 37.43872 -1.86107 8753 ft 365 kts 208°
2026-05-04 18:43 37.41708 -1.87495 8754 ft 346 kts 209°
2026-05-04 18:44 37.39609 -1.88841 8635 ft 331 kts 209°
2026-05-04 18:44 37.38917 -1.89285 8600 ft 327 kts 209°
2026-05-04 18:44 37.35661 -1.91375 8467 ft 306 kts 209°
2026-05-04 18:44 37.33798 -1.92571 8379 ft 295 kts 209°
2026-05-04 18:45 37.32001 -1.93724 8294 ft 285 kts 209°
2026-05-04 18:45 37.30266 -1.94836 8174 ft 276 kts 209°
2026-05-04 18:45 37.28565 -1.95926 7880 ft 274 kts 209°
2026-05-04 18:45 37.26861 -1.97017 7530 ft 275 kts 210°
2026-05-04 18:46 37.25189 -1.98087 7215 ft 274 kts 210°
2026-05-04 18:46 37.23497 -1.99186 7046 ft 273 kts 211°
2026-05-04 18:46 37.21810 -2.00313 7021 ft 276 kts 211°
2026-05-04 18:46 37.20106 -2.01459 7015 ft 281 kts 210°
2026-05-04 18:47 37.18375 -2.02623 7021 ft 282 kts 211°
2026-05-04 18:47 37.16617 -2.03714 7004 ft 281 kts 207°
2026-05-04 18:47 37.14828 -2.04706 7008 ft 281 kts 206°
2026-05-04 18:47 37.13044 -2.05697 7007 ft 279 kts 207°
2026-05-04 18:48 37.11330 -2.06767 7011 ft 279 kts 210°
2026-05-04 18:48 37.09619 -2.07890 7009 ft 278 kts 210°
2026-05-04 18:48 37.07915 -2.09031 7008 ft 277 kts 211°
2026-05-04 18:48 37.06222 -2.10182 6931 ft 277 kts 210°
2026-05-04 18:49 37.04531 -2.11339 6659 ft 277 kts 210°
2026-05-04 18:49 37.02834 -2.12506 6279 ft 280 kts 210°
2026-05-04 18:49 37.00986 -2.13233 6048 ft 280 kts 184°
2026-05-04 18:49 36.99115 -2.12817 6007 ft 271 kts 155°
2026-05-04 18:50 36.97680 -2.11419 5990 ft 257 kts 127°
2026-05-04 18:50 36.96709 -2.09637 5995 ft 248 kts 122°
2026-05-04 18:50 36.95830 -2.07846 5943 ft 235 kts 121°
2026-05-04 18:50 36.95000 -2.06153 5859 ft 221 kts 124°
2026-05-04 18:51 36.93887 -2.04945 5704 ft 209 kts 160°
2026-05-04 18:51 36.92506 -2.04831 5409 ft 198 kts 205°
2026-05-04 18:51 36.91522 -2.05918 5014 ft 193 kts 250°
2026-05-04 18:51 36.91288 -2.07558 4529 ft 198 kts 264°
2026-05-04 18:52 36.91080 -2.09242 4232 ft 195 kts 259°
2026-05-04 18:52 36.90779 -2.10853 3994 ft 190 kts 256°
2026-05-04 18:52 36.90422 -2.12429 3739 ft 186 kts 254°
2026-05-04 18:52 36.90057 -2.13939 3488 ft 177 kts 253°
2026-05-04 18:53 36.89709 -2.15358 3259 ft 168 kts 253°
2026-05-04 18:53 36.89368 -2.16745 3080 ft 167 kts 253°
2026-05-04 18:53 36.89027 -2.18126 2847 ft 162 kts 253°
2026-05-04 18:53 36.88709 -2.19418 2639 ft 149 kts 253°
2026-05-04 18:54 36.88418 -2.20603 2452 ft 138 kts 253°
2026-05-04 18:54 36.88133 -2.21759 2272 ft 140 kts 254°
2026-05-04 18:54 36.87837 -2.22934 2058 ft 146 kts 253°
2026-05-04 18:54 36.87522 -2.24134 1932 ft 142 kts 254°
2026-05-04 18:55 36.87260 -2.25273 1697 ft 136 kts 257°
2026-05-04 18:55 36.86850 -2.27478 1257 ft 131 kts 253°
2026-05-04 18:55 36.86578 -2.28553 1222 ft 130 kts 252°
2026-05-04 18:56 36.86277 -2.29652 982 ft 137 kts 250°
2026-05-04 18:56 36.85965 -2.30775 821 ft 136 kts 251°
2026-05-04 18:56 36.85679 -2.31895 672 ft 135 kts 250°
2026-05-04 18:56 36.85393 -2.33014 501 ft 140 kts 251°
2026-05-04 18:57 36.85101 -2.34166 344 ft 137 kts 252°
2026-05-04 18:57 36.84820 -2.35298 105 ft 135 kts 252°
2026-05-04 18:57 36.84566 -2.36323 48 ft 99 kts 253°
2026-05-04 18:57 36.84417 -2.36922 42 ft 58 kts 252°
2026-05-04 18:58 36.84305 -2.37367 40 ft 50 kts 252°
2026-05-04 18:58 36.84217 -2.37734 36 ft 37 kts 256°
2026-05-04 18:58 36.84202 -2.38026 32 ft 33 kts 278°
2026-05-04 18:58 36.84237 -2.38183 29 ft 14 kts 323°
2026-05-04 18:59 36.84301 -2.38118 29 ft 13 kts 64°
2026-05-04 18:59 36.84328 -2.37993 32 ft 18 kts 74°
2026-05-04 18:59 36.84422 -2.37877 34 ft 21 kts 26°
2026-05-04 18:59 36.84526 -2.37829 35 ft 0 kts